TimeCST,TemperatureF,Dew PointF,Humidity,Sea Level PressureIn,VisibilityMPH,Wind Direction,Wind SpeedMPH,Gust SpeedMPH,PrecipitationIn,Events,Conditions,WindDirDegrees,DateUTC
12:54 AM,27.0,14.0,58,30.17,10.0,WNW,13.8,-,N/A,,Scattered Clouds,290,2012-11-26 06:54:00
1:54 AM,25.0,12.9,60,30.20,10.0,NW,13.8,-,N/A,,Overcast,310,2012-11-26 07:54:00
2:54 AM,24.1,9.0,53,30.22,10.0,NW,12.7,-,N/A,,Clear,320,2012-11-26 08:54:00
3:54 AM,21.0,7.0,55,30.24,10.0,NW,17.3,-,N/A,,Clear,310,2012-11-26 09:54:00
4:54 AM,19.9,6.1,55,30.26,10.0,NNW,16.1,-,N/A,,Mostly Cloudy,330,2012-11-26 10:54:00
5:54 AM,18.0,6.1,60,30.28,10.0,NW,16.1,-,N/A,,Clear,320,2012-11-26 11:54:00
6:50 AM,15.8,6.8,68,30.24,10.0,NW,15.0,-,N/A,,Mostly Cloudy,320,2012-11-26 12:50:00
6:54 AM,16.0,7.0,68,30.31,10.0,NNW,15.0,-,N/A,,Mostly Cloudy,330,2012-11-26 12:54:00
7:54 AM,16.0,8.1,71,30.35,10.0,NW,12.7,-,N/A,,Overcast,320,2012-11-26 13:54:00
8:54 AM,18.0,9.0,68,30.38,4.0,NW,12.7,-,0.00,Snow,Light Snow,320,2012-11-26 14:54:00
9:54 AM,19.0,9.0,65,30.40,5.0,NNW,11.5,-,0.00,Snow,Light Snow,330,2012-11-26 15:54:00
10:54 AM,19.0,8.1,62,30.42,10.0,NNW,10.4,-,0.00,,Scattered Clouds,330,2012-11-26 16:54:00
11:54 AM,21.9,8.1,55,30.41,10.0,NNW,10.4,-,N/A,,Clear,340,2012-11-26 17:54:00
12:54 PM,24.1,7.0,48,30.40,10.0,NW,12.7,-,N/A,,Clear,320,2012-11-26 18:54:00
1:54 PM,25.0,7.0,46,30.40,10.0,NNW,13.8,-,N/A,,Clear,340,2012-11-26 19:54:00
2:54 PM,24.1,6.1,46,30.40,10.0,NW,13.8,-,N/A,,Clear,320,2012-11-26 20:54:00
3:54 PM,23.0,6.1,48,30.41,10.0,NNW,11.5,-,N/A,,Clear,330,2012-11-26 21:54:00
4:54 PM,19.0,5.0,54,30.43,10.0,NW,10.4,-,N/A,,Clear,320,2012-11-26 22:54:00
5:54 PM,17.1,3.9,56,30.44,10.0,NNW,6.9,-,N/A,,Clear,330,2012-11-26 23:54:00
6:54 PM,15.1,3.0,59,30.45,10.0,NW,9.2,-,N/A,,Clear,320,2012-11-27 00:54:00
7:54 PM,14.0,3.0,62,30.45,10.0,WNW,5.8,-,N/A,,Clear,300,2012-11-27 01:54:00
8:54 PM,14.0,3.0,62,30.45,10.0,West,4.6,-,N/A,,Clear,270,2012-11-27 02:54:00
9:54 PM,10.0,1.9,70,30.46,10.0,SSW,4.6,-,N/A,,Clear,210,2012-11-27 03:54:00
10:54 PM,9.0,1.0,70,30.44,10.0,SSW,6.9,-,N/A,,Clear,200,2012-11-27 04:54:00
11:54 PM,10.0,1.9,70,30.43,10.0,SSW,5.8,-,N/A,,Clear,210,2012-11-27 05:54:00